Regional Weather Roundup
Issued by NWS

Home | Current Version | Previous Version | Graphics & Text | Print | Product List | Glossary On
Versions: 1 2 3 4 5 6 7 8 9 10 11 12 13 14 15 16 17 18 19 20 21 22 23 24 25 26 27 28 29 30 31 32 33 34 35 36 37 38 39 40 41 42 43 44 45 46 47 48 49 50
000
ASUS43 KMPX 071901
RWRMN
WEATHER ROUNDUP FOR MINNESOTA
NATIONAL WEATHER SERVICE TWIN CITIES/CHANHASSEN MN
100 PM CST SUN FEB 07 2016


NOTE: "FAIR" INDICATES FEW OR NO CLOUDS BELOW 12,000 FEET WITH NO
SIGNIFICANT WEATHER AND/OR OBSTRUCTIONS TO VISIBILITY. N/A MEANS
CURRENT SKY AND/OR WEATHER CONDITIONS ARE NOT AVAILABLE.

MNZ060>063-068>070-072000-
   Twin Cities Metro

CITY           SKY/WX    TMP DP  RH WIND       PRES   REMARKS
TWIN CITIES    CLOUDY    39  26  59 W21G26    29.62F
ST PAUL        CLOUDY    39  26  59 W22G32    29.63S
CRYSTAL        CLOUDY    39  26  59 W20G28    29.61F
LAKEVILLE      PTSUNNY   37  28  70 W25       29.63F
EDEN PRAIRIE   CLOUDY    40  26  57 W20G33    29.62F
SOUTH ST PAUL  CLOUDY    40  26  57 W15G21    29.62S
LAKE ELMO      CLOUDY    37  28  70 W20G28    29.62S
$$
MNZ001>005-007-008-013>017-022>024-027-028-072000-
   Northwest Minnesota

CITY           SKY/WX    TMP DP  RH WIND       PRES   REMARKS
BEMIDJI        LGT SNOW  25  22  89 W28G33    29.55R VSB 1   WCI   8
HALLOCK        SNOW      16  12  86 NW36G45   29.73R VSB 1/4 WCI  -6
ROSEAU         LGT SNOW  21  18  86 NW18G26   29.60R VSB 3/4 WCI   6
WARROAD        LGT SNOW  21  18  86 NW22G33   29.57R VSB 3/4 WCI   5
CROOKSTON      SNOW      19  18  93 N37       29.73R VSB 1/4 WCI  -1
FOSSTON        LGT SNOW  19  16  86 NW26G32   29.65R VSB 3/4 WCI   1
DETROIT LAKES  LGT SNOW  28  27  93 NW28G39   29.65R WCI  13
MOORHEAD       LGT RAIN  28  27  93 N28G36    29.72R WCI  13
PARK RAPIDS    LGT SNOW  30  24  78 NW26G35   29.56R WCI  16
MAHNOMEN       SNOW      23  20  89 NW24G31   29.65R VSB 1/2 WCI   7
$$
MNZ006-009>011-018-025>026-072000-
   North Central Minnesota

CITY           SKY/WX    TMP DP  RH WIND       PRES   REMARKS
BAUDETTE       LGT SNOW  25  19  78 NW25G33   29.50R WCI   9
FLAG ISLAND    LGT SNOW  23  19  86 NW22      29.53R WCI   8
INTL FALLS     CLOUDY    30  26  85 W14G22    29.45R WCI  19
WASKISH        LGT SNOW  27  25  93 W14G23    29.52R VSB 1   WCI  15
LONGVILLE      LGT SNOW  32  28  86 W17G29    29.51R WCI  21
GRAND RAPIDS   CLOUDY    30  27  86 NW22G28   29.47R VSB 1   WCI  17
CRANE LAKE     CLOUDY    34  32  93 NW2       29.43S
ORR            MIX PCPN  30  28  93 W9        29.40R WCI  22
COOK           LGT SNOW  32  30  93 W9        29.42R WCI  24
WALKER         LGT SNOW  30  27  88 NW13G23   29.52R WCI  20
$$
MNZ012-019>021-037-072000-
   Northeast Minnesota

CITY           SKY/WX    TMP DP  RH WIND       PRES   REMARKS
DULUTH         LGT SNOW  34  31  88 W16       29.44F FOG     WCI  24
ELY            CLOUDY    32  30  93 W7        29.40R FOG     WCI  26
HIBBING        CLOUDY    32  29  88 W8G17     29.42S WCI  25
EVELETH        LGT SNOW  32  32 100 W9        29.42S WCI  24
DULUTH HARBOR  CLOUDY    37  34  87 SW13      29.47F
TWO HARBORS    CLOUDY    37  34  87 W7        29.41F
SILVER BAY     LGT RAIN  37  34  87 CALM      29.41R
GRAND MARAIS     N/A     34  32  92 SE3       29.45F
G MARAIS ARPRT MIX PCPN  28  27  93 CALM      29.41F VSB 3/4
$$
MNZ029>031-032-039>041-046>048-054>057-064-072000-
   West Central Minnesota

CITY           SKY/WX    TMP DP  RH WIND       PRES   REMARKS
FERGUS FALLS   LGT SNOW  34  32  93 N30G49    29.67R WCI  20
WHEATON        LGT SNOW  36  32  87 W23G35    29.71R
MORRIS         CLOUDY    36  30  80 W23G31    29.65S
ALEXANDRIA     FLURRIES  34  30  85 W21       29.61F WCI  22
ELBOW LAKE     LGT SNOW  33  32  98 NW20      29.65S WCI  21
WADENA         LGT SNOW  34  30  86 NW20G26   29.57R WCI  22
GLENWOOD       CLOUDY    36  30  80 W23G31    29.62F
APPLETON       CLOUDY    37  30  75 NW21G28   29.69S
BENSON         CLOUDY    37  30  75 NW18G28   29.66F
ORTONVILLE     CLOUDY    36  28  75 NW21G32   29.70S
MADISON        FLURRIES  37  30  75 NW24G30   29.71F
WILLMAR        CLOUDY    37  30  75 W20G28    29.67F
$$
MNZ033>034-036-042>043-049>051-058-059-072000-
   Central Minnesota

CITY           SKY/WX    TMP DP  RH WIND       PRES   REMARKS
ST CLOUD       CLOUDY    37  28  70 W20       29.59F
SAUK CENTRE    CLOUDY    35  30  83 W15G23    29.60F WCI  25
PAYNESVILLE    CLOUDY    36  30  79 W21       29.63F
AITKIN         MIX PCPN  37  28  70 W9G23     29.49F
PINE RIVER     LGT SNOW  34  28  80 NW14G26   29.56S WCI  24
BRAINERD       FLURRIES  35  30  82 W14       29.53F WCI  26
STAPLES        FLURRIES  34  30  86 W16       29.55F WCI  23
LONG PRAIRIE   CLOUDY    34  30  86 W17G23    29.59F WCI  23
LITTLE FALLS   CLOUDY    36  28  75 W13       29.57F
LITCHFIELD     CLOUDY    37  30  75 W16G24    29.64F
BUFFALO        CLOUDY    38  28  66 W18G28    29.63F
MAPLE LAKE     CLOUDY    38  30  71 W15G24    29.63S
$$
MNZ037-044-045-052-053-072000-
   East Central Minnesota

CITY           SKY/WX    TMP DP  RH WIND       PRES   REMARKS
PRINCETON      CLOUDY    39  28  65 W12G21    29.58F
MORA           FLURRIES  34  28  80 CALM      29.57S
CAMBRIDGE      CLOUDY    41  28  60 W15G24    29.55F
RUSH CITY      CLOUDY    38  28  67 W14G22    29.56S
MOOSE LAKE     LGT RAIN  36  32  87 W13       29.48F
HINCKLEY       CLOUDY    36  32  87 W12G22    29.54S
CLOQUET        LGT SNOW  34  30  86 W9        29.46S WCI  26
MCGREGOR       CLOUDY    36  32  87 W12G23    29.49F
$$
MNZ071>073-080-081-089-090-097-098-072000-
   Southwest Minnesota

CITY           SKY/WX    TMP DP  RH WIND       PRES   REMARKS
MONTEVIDEO     CLOUDY    37  30  75 NW17G23   29.70F
GRANITE FALLS  CLOUDY    37  32  81 W22       29.72F
CANBY          CLOUDY    39  32  77 NW26G37   29.73F
MARSHALL       LGT RAIN  35  29  78 W22       29.72S WCI  23
REDWOOD FALLS  CLOUDY    38  29  70 W21G30    29.70F
OLIVIA         CLOUDY    36  30  80 W22G29    29.67F
PIPESTONE      CLOUDY    36  27  69 NW23G36   29.76F
WINDOM         PTSUNNY   36  28  75 W28G37    29.73F
WORTHINGTON    SUNNY     34  27  75 W24       29.77F WCI  21
JACKSON        SUNNY     36  27  69 W28G35    29.75F
TRACY          MOSUNNY   37  30  77 W15G25    29.73F
SLAYTON        SUNNY     34  31  88 W24G32    29.75F WCI  21
$$
MNZ065>067-074>077-082>085-091>093-072000-
   South Central Minnesota

CITY           SKY/WX    TMP DP  RH WIND       PRES   REMARKS
MANKATO        MOSUNNY   39  27  60 W24G31    29.69F
NEW ULM        MOSUNNY   37  28  70 W23       29.69F
ST JAMES       SUNNY     39  30  70 W23G29    29.73F
FAIRMONT       SUNNY     39  27  60 W21G30    29.73F
GLENCOE        PTSUNNY   39  31  72 W20G32    29.65S
FARIBAULT        N/A     39  27  60 W21G28    29.67F
OWATONNA       MOSUNNY   37  25  60 W21G28    29.68F
WASECA         CLOUDY    36  28  75 W20       29.71F
ALBERT LEA     MOSUNNY   37  28  70 W12G22    29.70F
$$
MNZ078>079-086>088-094>096-072000-
   Southeast Minnesota

CITY           SKY/WX    TMP DP  RH WIND       PRES   REMARKS
ROCHESTER      MOSUNNY   36  27  69 W21G29    29.66F
RED WING       MOSUNNY   41  25  52 W17G24    29.62F
STANTON        MOSUNNY   40  27  59 W18G25    29.64F
DODGE CENTER   MOSUNNY   39  25  56 W23       29.66F
WINONA         MOSUNNY   41  27  56 W18       29.66F
AUSTIN         MOSUNNY   37  28  70 W16G22    29.69F
PRESTON        MOSUNNY   35  26  69 W17       29.69F WCI  24
$$
ABBREVIATIONS USED IN REMARKS
   TC - TEMPERATURES IN CELSIUS
  WCI - WIND CHILL INDEX
   HX - HEAT INDEX
  VSB - VISIBILITY
$$



USA.gov is the U.S. government's official web portal to all federal, state and local government web resources and services.